Wind_Speed
16 17 17 17 17 17 16 16 16 15 16 16 17 17 17 17 18 20 19 17 17 17 17 17 17 17 18 18 19 22 24 24 26 27 26 26 26 25 25 25 24 24 24 24 23 23 23 22 22 22 20 20 20 22 24 25 25 25 24 24 25 25 26 23 14 12 20 23 23 25 25 24 26 28 28 30 31 32 34 36 37 37 38 38 36
16 17 17 18 19 19 18 17 16 15 15 16 16 16 16 16 17 20 20 19 17 17 17 17 17 17 18 18 19 23 25 26 28 28 27 28 28 26 26 25 25 24 24 25 24 24 24 23 23 24 23 22 22 22 23 24 25 26 25 24 26 26 25 26 21 14 16 22 23 25 25 25 26 28 29 30 32 32 33 35 35 36 38 39 39
15 16 18 19 20 19 19 18 17 16 16 16 16 16 15 16 17 20 21 21 20 18 17 17 17 17 18 18 19 21 23 26 30 30 27 27 28 27 26 24 24 24 24 24 24 24 24 23 24 25 24 24 25 25 24 24 25 26 27 27 27 27 26 26 25 18 16 21 23 24 26 26 28 30 30 31 32 33 33 35 35 36 37 38 40
15 15 17 18 19 20 19 18 19 19 19 18 17 17 16 16 19 22 23 24 23 20 17 17 17 18 18 19 20 21 23 26 30 31 29 28 27 27 26 24 23 22 23 24 24 24 24 23 24 24 23 23 24 24 23 23 25 26 28 28 27 28 27 25 25 24 20 20 22 24 26 27 28 30 30 30 32 33 34 35 34 35 36 37 39
15 15 16 16 17 18 18 18 20 21 21 21 21 20 20 20 22 24 25 26 26 24 20 18 18 18 19 19 19 21 25 28 31 32 32 30 29 27 26 25 23 22 22 23 23 23 24 24 25 24 22 21 22 22 23 23 24 25 27 29 27 27 28 26 26 27 24 22 23 23 24 26 28 29 30 30 30 31 33 34 34 34 36 36 38
14 15 15 15 16 16 16 17 19 20 21 22 23 23 24 24 24 25 25 26 26 26 25 22 20 20 20 20 20 23 27 30 32 33 33 32 31 29 27 26 24 22 22 23 23 23 23 23 22 21 20 21 22 23 24 24 24 25 26 28 29 28 28 27 27 26 25 25 26 24 22 24 26 27 29 30 30 29 30 31 31 33 35 35 34
13 13 13 14 14 14 14 15 16 18 19 19 20 22 24 25 25 25 25 26 26 26 26 25 24 24 24 24 24 26 29 31 33 34 34 33 32 30 28 26 24 23 22 22 22 22 23 22 19 19 19 20 22 24 25 25 25 26 26 28 29 29 30 29 27 26 25 24 25 24 23 24 26 27 29 30 30 31 30 27 26 28 32 34 34
12 12 12 13 14 14 13 13 14 15 16 16 17 19 21 23 24 25 25 26 27 27 26 26 26 26 26 26 26 28 30 32 34 34 34 33 32 31 29 25 23 23 22 21 21 21 22 22 21 20 20 20 22 24 24 25 26 28 28 27 27 27 29 30 29 28 27 25 23 24 24 23 24 26 27 26 25 27 29 29 26 27 30 32 35
11 11 12 13 13 13 12 13 13 13 14 15 16 17 19 20 22 23 25 26 26 26 26 26 26 27 27 27 27 29 31 33 34 34 34 33 31 30 28 25 22 22 21 21 23 23 23 22 22 22 22 22 23 23 25 27 28 29 29 28 27 26 26 28 29 28 27 24 22 22 22 20 21 23 23 24 26 26 29 30 28 28 30 31 34
11 12 13 13 13 13 13 14 14 14 14 15 16 18 18 20 21 23 24 25 25 26 26 27 27 27 28 28 28 29 31 33 33 33 33 32 30 29 27 24 22 21 21 22 25 25 24 24 24 23 22 22 23 25 28 30 29 28 30 30 28 27 25 26 27 27 26 23 20 20 18 16 20 23 23 27 31 28 28 30 27 25 26 25 25
12 13 14 13 13 13 14 14 14 14 15 16 17 18 19 21 22 23 24 25 25 26 26 27 28 28 28 28 28 28 31 33 34 34 33 32 31 29 27 25 22 20 20 22 23 24 25 26 26 25 24 23 25 28 30 31 31 33 34 33 32 30 28 28 29 29 27 24 21 20 18 17 21 24 25 28 30 29 30 32 29 26 24 19 15
14 15 15 15 15 15 15 15 15 16 17 18 18 19 20 22 23 24 25 25 25 26 27 28 28 28 28 29 28 28 31 33 34 34 34 33 32 30 28 26 23 22 22 22 21 22 24 26 27 28 27 26 27 30 30 32 35 38 39 38 37 35 32 32 33 34 31 27 24 22 21 21 23 24 26 27 29 30 31 31 31 29 26 23 20
17 17 18 18 18 18 17 17 18 18 19 19 19 21 22 23 24 25 26 26 27 27 28 28 28 28 29 30 29 29 30 33 34 34 35 34 33 32 30 28 26 25 25 23 21 21 24 26 27 27 28 29 31 32 32 36 40 41 41 42 42 40 36 33 35 39 39 34 29 26 23 23 24 25 28 29 30 30 29 29 31 30 28 29 30
19 19 20 19 19 19 19 20 20 20 20 21 22 23 24 24 25 25 26 27 27 28 28 28 28 28 28 29 30 29 31 33 34 34 35 35 34 34 32 30 29 28 27 25 21 20 23 25 25 27 29 31 33 35 37 40 42 42 42 43 43 41 37 33 32 37 42 41 37 33 29 26 26 27 28 30 32 32 31 31 32 34 34 34 34
20 20 20 20 20 20 20 21 21 21 21 22 23 24 24 24 24 24 25 26 26 26 27 27 28 28 28 29 30 31 31 33 34 34 35 36 35 35 34 33 32 32 30 28 23 21 23 24 24 26 30 33 34 36 40 41 41 40 39 39 41 39 36 33 31 32 37 41 40 38 35 32 30 30 29 29 33 35 36 37 39 39 36 30 27
20 20 20 19 19 19 20 21 21 21 21 22 23 23 23 23 22 22 24 25 25 26 26 27 27 27 28 29 30 31 31 32 33 34 34 35 36 36 35 33 32 31 31 29 24 22 24 25 26 27 30 34 37 38 39 39 38 37 34 35 38 38 35 33 30 28 30 34 35 34 34 33 30 30 30 30 32 35 36 36 34 31 25 18 18
19 19 18 18 18 18 19 20 21 21 21 22 22 21 21 21 21 21 23 25 26 26 26 26 27 27 28 29 29 30 31 32 33 34 35 36 36 35 33 31 30 28 28 27 24 25 26 26 27 29 32 36 38 38 38 38 37 34 31 31 34 34 34 32 30 24 21 26 29 28 28 28 27 27 28 29 32 35 34 29 26 25 21 13 11
17 17 17 17 17 18 18 19 19 19 19 19 19 19 20 20 20 20 22 24 25 25 25 25 26 27 28 28 28 29 31 32 33 34 35 36 36 34 30 28 28 27 26 25 25 27 31 31 30 31 34 37 37 37 38 38 36 32 29 29 29 30 31 31 28 22 16 18 22 23 23 25 28 29 29 29 31 33 33 30 28 28 25 17 13
16 17 17 17 17 17 17 17 17 17 17 17 17 18 19 19 20 20 21 22 24 25 25 26 26 26 27 28 30 30 31 33 33 34 35 35 36 35 30 27 28 27 25 25 27 30 34 36 35 35 36 37 36 36 37 37 35 31 28 26 27 29 30 27 24 20 17 17 19 20 22 25 28 30 30 30 31 32 34 36 34 31 28 24 20
16 17 17 16 16 16 15 15 15 15 14 14 15 16 17 18 19 20 20 21 22 24 26 26 26 26 26 28 30 31 31 32 33 33 34 34 35 35 31 27 26 26 25 25 27 31 36 38 38 37 38 37 36 37 38 38 35 32 31 29 27 28 27 22 19 16 12 13 14 14 17 19 20 22 24 26 29 30 33 37 38 36 33 29 26
16 17 17 16 16 15 14 13 12 12 12 12 13 14 16 17 18 19 20 21 22 24 26 27 26 26 26 27 29 31 30 31 32 33 34 34 35 35 33 29 26 24 24 25 26 30 35 38 38 39 39 38 38 38 39 39 37 35 35 32 26 23 23 20 17 14 9 5 3 3 5 8 10 12 14 16 19 22 26 31 36 38 38 34 30
16 16 16 15 14 13 12 11 10 10 10 10 11 13 14 15 17 18 19 21 22 24 25 26 27 27 27 27 28 30 31 31 32 33 34 34 34 34 33 32 28 25 25 26 28 31 34 37 38 39 39 39 38 38 39 40 40 39 37 34 28 24 24 24 23 21 18 16 15 14 13 11 9 8 8 10 12 15 17 22 28 31 36 40 37
15 15 15 14 13 11 10 9 8 8 8 9 10 11 12 14 15 17 19 20 22 23 24 26 27 27 28 28 28 30 31 32 32 32 33 34 34 33 33 32 32 30 27 27 29 31 34 36 37 38 39 39 39 39 39 41 42 41 39 36 33 31 29 29 28 25 24 25 24 23 22 20 18 15 12 10 8 9 12 15 20 22 26 33 34
15 14 13 12 11 10 8 8 7 7 7 7 8 8 10 11 13 15 17 18 20 21 23 24 26 27 28 28 29 29 30 32 32 32 32 33 33 33 33 33 34 33 32 30 30 31 34 35 37 38 39 40 39 39 40 41 41 41 40 38 36 37 36 33 30 27 27 28 26 25 25 24 22 20 17 14 10 7 7 6 9 12 16 20 22
14 13 12 11 10 8 7 6 5 5 5 6 7 7 8 10 11 13 14 16 18 19 21 22 24 25 26 27 28 28 29 31 32 32 32 33 33 33 33 34 34 35 34 33 32 33 34 36 37 39 40 40 40 40 41 41 41 41 41 40 39 39 38 34 32 31 29 27 26 25 26 26 24 22 19 16 13 11 11 9 6 2 4 8 10
14 12 11 10 8 7 5 4 3 3 4 5 6 7 8 9 10 11 13 14 16 17 19 20 22 23 24 25 26 27 29 30 31 32 32 33 33 32 33 34 35 35 34 34 33 34 35 36 36 38 39 40 40 40 40 41 42 42 42 42 41 40 37 34 33 33 30 28 27 27 26 26 26 25 24 21 20 19 17 15 14 13 10 10 13
13 11 10 8 7 6 4 3 3 3 3 4 5 5 6 8 9 10 11 13 15 16 17 18 19 21 22 24 25 26 28 29 31 32 32 32 32 32 33 35 35 36 36 35 34 34 35 37 37 38 40 41 41 42 42 43 43 42 42 42 41 40 38 35 34 34 32 29 28 28 28 30 32 31 30 29 28 25 21 20 20 19 18 19 21
12 10 9 7 6 5 4 3 3 2 3 4 5 5 6 7 8 9 10 12 14 15 15 16 17 18 20 22 23 24 26 28 29 30 30 30 29 30 32 34 35 36 35 34 34 35 36 38 40 41 42 43 44 44 44 43 42 41 41 41 41 40 39 39 39 38 36 33 32 32 32 34 35 33 33 34 33 29 25 25 24 23 23 24 21
11 10 9 8 7 6 4 3 3 2 3 4 5 6 6 7 8 9 10 11 12 13 13 14 16 17 18 19 21 22 24 25 26 27 27 27 27 27 30 31 33 34 34 33 35 37 37 37 38 39 39 39 40 40 41 41 41 41 42 41 40 40 40 40 39 38 36 35 35 34 33 34 34 34 35 35 35 34 32 30 28 27 28 27 23
12 12 11 10 8 7 5 4 3 2 3 4 5 6 6 7 8 9 10 11 12 12 13 13 15 17 18 18 18 18 19 20 22 24 26 26 25 25 27 30 31 33 34 35 35 36 35 34 34 34 34 34 35 36 37 38 39 39 40 40 40 40 39 38 37 35 35 35 34 34 34 34 34 34 34 34 34 36 36 34 32 31 30 28 25
13 13 12 11 9 8 6 5 4 3 2 3 5 6 7 7 7 8 9 10 11 12 12 12 13 15 17 18 18 17 17 18 20 22 24 25 24 24 26 29 31 32 34 36 35 34 33 32 32 32 32 31 32 33 34 35 35 36 37 38 39 40 38 36 35 35 34 34 33 33 34 34 33 34 34 33 34 36 37 37 36 34 32 29 26
13 12 11 10 9 8 7 6 4 2 1 2 3 5 7 8 8 8 8 9 10 12 12 12 12 13 15 16 17 17 18 19 19 21 23 24 24 24 25 27 29 31 33 35 34 33 32 30 30 31 31 30 30 31 32 33 34 34 35 35 37 38 38 36 35 35 35 33 33 33 33 32 32 32 33 33 33 34 34 35 35 34 33 32 30
12 11 10 9 8 8 8 6 4 2 1 1 2 4 6 7 9 9 8 8 9 10 12 13 12 12 13 14 15 16 17 18 19 20 21 23 24 24 25 26 28 30 33 34 33 32 31 30 30 31 31 31 30 31 31 31 32 34 34 34 34 35 37 37 37 37 36 33 32 33 34 33 32 31 32 32 32 31 31 31 31 31 30 30 29
11 9 8 8 7 7 7 7 4 2 1 1 1 2 3 5 8 9 9 9 9 10 12 13 12 12 12 13 14 15 16 18 19 19 19 21 23 24 24 26 28 29 31 31 31 30 30 30 30 31 31 31 31 32 32 31 31 32 33 34 35 35 37 38 39 38 36 34 33 33 33 33 32 32 32 31 31 30 29 29 28 28 27 26 27
11 9 7 7 6 6 6 6 5 3 1 1 1 1 1 3 5 8 9 10 10 10 11 12 13 12 12 12 13 14 15 17 18 18 19 20 22 23 25 27 29 30 30 30 29 29 30 30 30 31 31 31 31 32 32 32 32 32 32 33 34 35 36 37 38 37 36 36 34 33 32 32 31 31 31 31 30 29 29 28 28 27 25 24 24
12 9 7 7 7 6 5 5 5 4 3 2 2 2 2 1 3 6 8 8 9 9 10 11 12 12 11 11 12 13 14 15 17 18 18 19 20 22 24 26 28 28 29 28 28 28 29 30 30 30 30 30 31 32 33 33 32 32 32 32 33 33 34 34 35 36 36 36 35 33 31 31 30 30 30 30 29 28 27 27 27 26 26 25 24
12 9 7 6 6 6 5 5 5 5 4 4 4 4 4 2 1 3 5 7 7 9 9 10 11 12 12 11 11 12 13 14 15 16 17 18 19 21 22 23 25 26 27 27 26 26 28 28 29 29 29 29 29 31 32 32 32 32 32 32 32 31 31 31 32 33 34 34 34 33 31 29 28 28 29 29 29 28 27 26 25 24 24 24 23
12 10 8 6 5 6 6 5 4 4 5 6 6 7 6 3 2 1 3 4 6 8 9 10 11 11 12 12 12 12 13 14 15 17 18 18 18 19 20 21 22 24 26 27 26 25 25 26 26 26 27 27 27 29 31 32 31 31 32 32 32 31 30 30 30 31 31 31 32 32 31 29 27 26 26 26 26 26 26 25 24 23 22 22 21
13 10 9 8 6 6 6 5 4 3 4 5 5 5 5 4 4 2 2 3 4 6 8 9 10 11 11 12 12 12 13 14 15 16 17 17 17 17 18 20 21 22 24 26 26 25 24 25 25 24 24 24 25 26 28 29 30 30 31 31 32 32 31 31 30 29 29 28 29 29 29 29 27 25 25 24 23 23 24 24 24 23 22 22 22
13 11 10 9 7 7 7 6 5 4 4 3 2 3 3 3 4 3 2 3 3 5 7 8 9 10 11 11 12 12 13 14 14 14 15 16 16 16 17 18 19 21 22 24 25 25 24 24 24 23 22 23 23 24 25 26 28 29 30 30 31 32 32 31 30 29 28 27 27 26 27 27 26 25 24 22 21 21 21 22 22 23 23 23 22
11 10 9 8 8 7 7 7 6 6 4 2 2 2 3 4 4 3 2 3 4 5 6 7 7 8 10 10 11 12 12 13 13 13 13 14 14 15 15 16 17 19 20 21 23 24 23 23 23 22 21 21 22 22 23 24 25 27 28 28 29 30 30 31 30 29 27 26 26 26 25 25 25 25 24 21 19 18 19 19 19 20 21 21 22
11 10 9 8 8 9 9 8 8 7 5 4 3 3 4 4 4 4 4 4 4 5 6 6 6 7 8 9 10 10 11 12 13 13 13 13 13 13 14 14 15 17 18 19 20 21 22 22 21 20 20 20 22 23 23 24 24 25 25 25 26 27 28 29 29 28 26 25 25 25 25 24 23 24 24 22 19 17 17 18 17 17 17 17 18
11 10 9 9 9 10 10 9 9 9 7 5 4 3 4 4 4 5 6 5 5 6 7 7 7 7 7 8 8 9 10 11 12 12 12 12 12 12 12 13 13 14 15 16 16 18 20 20 19 19 19 19 21 22 24 24 24 23 22 22 22 24 25 27 27 27 25 24 23 24 24 23 22 22 22 22 21 18 16 16 16 16 15 14 14
12 11 11 10 10 11 11 10 10 10 9 7 5 4 3 3 4 5 7 7 7 7 8 8 8 8 8 8 8 8 9 9 10 11 11 11 11 11 11 11 11 12 13 14 15 16 17 18 17 18 18 19 20 21 23 24 24 23 21 20 20 21 22 24 25 25 24 23 22 22 23 23 21 21 21 20 20 19 17 14 13 14 14 12 11
13 12 12 11 11 12 12 11 10 11 10 8 7 5 4 4 5 6 6 7 8 8 8 8 9 9 10 9 8 8 8 9 9 10 10 10 10 10 10 10 10 10 12 13 14 14 15 16 16 17 17 18 19 20 22 23 23 22 20 18 17 18 20 21 21 22 22 22 21 21 21 21 21 20 19 19 18 18 17 15 13 11 10 10 10
13 13 13 12 12 12 12 11 11 11 11 10 8 7 6 6 6 6 7 7 8 8 9 9 10 10 11 10 9 8 9 9 8 9 9 9 9 9 9 9 9 9 10 11 12 13 14 14 15 16 17 18 19 19 20 21 21 21 20 17 15 15 17 18 18 19 19 20 20 20 19 19 20 20 19 18 17 16 16 16 15 12 9 7 7
13 13 14 14 12 12 12 12 12 12 12 11 10 10 9 8 8 8 8 8 8 8 8 9 9 10 11 11 10 10 10 9 8 7 7 7 7 8 8 9 9 9 9 9 10 11 12 12 13 14 15 16 17 18 19 20 19 19 19 18 16 14 14 14 15 16 17 17 17 18 18 18 18 18 18 18 18 16 15 15 14 13 11 8 5
14 13 13 13 13 12 12 13 13 14 14 13 13 12 11 10 10 10 10 9 9 9 9 9 9 9 10 11 11 11 11 9 7 6 6 6 6 7 7 7 8 8 9 9 9 9 9 10 11 12 13 14 15 16 18 19 19 18 17 17 16 16 14 13 13 14 14 14 15 16 17 17 17 17 17 17 17 17 16 15 14 12 11 10 7
15 15 14 13 13 13 13 13 14 15 15 15 15 15 14 14 13 13 13 12 12 11 11 10 9 9 9 11 12 12 11 9 8 7 6 7 7 7 7 7 7 7 8 8 9 9 9 8 8 9 10 11 12 13 15 17 18 18 17 16 16 15 15 14 14 14 13 13 13 14 14 15 15 16 16 16 16 15 15 14 14 12 10 9 8
15 16 16 15 14 14 14 14 15 16 16 17 17 17 17 17 16 16 16 15 15 14 13 12 11 10 10 10 11 11 9 8 8 8 8 8 8 8 8 7 7 6 6 7 8 8 9 8 7 7 8 9 10 11 12 13 15 16 16 16 16 15 15 14 14 14 13 13 13 13 13 13 13 13 13 14 15 15 14 14 13 11 9 9 8
16 17 18 18 17 16 16 16 17 18 18 19 19 19 19 19 19 19 18 18 18 17 16 14 12 11 11 10 10 10 8 8 8 9 10 10 10 9 8 8 7 7 7 7 7 7 8 8 8 8 7 7 8 9 10 11 12 13 14 15 15 16 15 15 15 15 14 14 13 13 13 13 12 12 12 12 13 13 13 13 12 10 8 8 7
Wind_Direction
72 68 65 61 58 59 58 56 54 53 54 51 49 46 42 37 27 20 29 40 40 36 30 28 28 28 29 28 20 19 21 19 15 13 11 9 7 5 5 5 2 358 354 351 349 345 337 330 322 315 312 308 302 298 294 290 284 278 274 270 265 261 255 249 245 255 259 254 252 255 254 249 244 239 237 238 238 237 238 238 236 234 232 232 232
75 70 66 63 61 61 60 59 56 53 53 50 48 47 47 43 28 21 31 41 45 44 37 32 32 30 29 27 21 18 18 17 14 12 9 7 5 3 3 2 360 357 354 352 352 350 346 340 334 328 322 315 307 301 296 293 288 279 271 266 263 261 258 254 252 253 259 257 252 253 254 247 242 241 236 235 238 238 237 235 232 231 233 233 232
79 73 68 64 63 61 58 56 53 50 48 46 45 45 44 42 33 31 39 43 42 42 38 35 33 30 28 24 20 17 15 14 14 12 8 5 2 1 1 1 357 353 351 352 351 349 345 340 337 336 331 324 316 310 304 299 295 289 279 270 263 261 259 255 252 248 252 259 254 249 249 245 241 242 238 236 238 237 235 235 232 230 231 231 230
85 80 75 69 64 61 59 56 54 53 52 50 49 47 45 45 43 43 45 45 43 42 38 35 33 30 27 23 20 16 13 12 12 11 10 6 1 358 358 359 357 352 349 350 349 345 341 336 334 334 330 325 322 319 315 308 301 298 293 285 273 264 262 257 252 248 247 256 255 248 246 245 244 244 241 237 235 234 235 235 229 227 228 227 227
90 85 83 78 71 66 63 60 57 57 57 56 55 54 52 51 49 47 47 48 48 48 45 38 32 29 26 22 18 14 13 13 11 11 11 8 3 359 356 356 354 350 346 345 345 342 338 334 332 332 327 321 320 320 319 316 310 305 300 296 289 278 268 260 255 251 246 247 253 251 244 242 245 247 242 235 231 230 232 233 227 225 226 226 225
91 88 85 82 78 74 70 66 63 60 59 57 54 52 52 51 50 49 48 49 48 48 49 45 38 34 31 27 22 17 16 14 12 11 10 8 6 2 358 357 353 348 345 345 346 343 339 335 331 329 325 319 318 319 318 316 313 309 303 300 298 294 283 268 256 251 246 246 250 250 243 237 239 243 242 236 229 225 226 228 226 223 222 222 221
93 90 86 82 80 79 76 73 70 65 60 55 51 49 48 48 49 49 48 48 47 46 47 45 42 39 36 32 27 21 19 16 13 12 10 7 6 3 1 359 354 348 343 342 344 342 339 336 331 328 326 322 320 319 318 317 313 310 306 302 300 299 294 284 270 256 249 248 247 246 244 239 235 238 242 238 230 225 222 218 217 216 217 219 218
96 89 85 82 79 79 77 77 75 69 62 56 52 49 48 48 48 48 48 47 46 45 44 43 42 40 36 33 29 24 21 18 15 12 9 6 5 5 4 0 353 347 343 339 340 339 336 334 330 327 326 323 322 323 323 321 317 312 308 305 302 298 294 290 283 270 257 249 247 246 243 238 232 233 237 231 224 223 220 214 211 210 211 215 219
94 87 84 82 80 80 78 77 75 69 62 55 50 49 50 50 49 48 47 46 45 45 44 43 41 39 36 34 30 26 22 19 16 13 10 5 3 4 6 2 354 348 343 343 345 343 338 333 330 327 325 321 321 325 325 322 319 314 309 306 303 298 292 287 284 278 265 251 243 242 240 234 228 225 223 219 219 221 218 214 215 213 210 212 218
92 89 86 84 83 82 78 76 73 67 61 53 50 51 51 51 50 48 48 47 46 44 43 42 40 37 34 32 28 26 22 18 16 16 13 8 4 4 5 2 358 352 346 345 348 346 341 337 334 330 327 325 324 324 321 320 320 317 312 307 300 293 288 283 279 277 271 257 241 236 237 234 228 223 219 220 223 223 215 211 213 211 206 208 215
93 91 89 86 84 82 79 76 72 66 60 55 53 54 52 49 49 48 47 47 45 43 41 39 38 35 33 30 26 23 20 17 16 16 15 12 8 6 5 2 359 354 347 344 344 343 341 340 339 336 332 330 327 324 322 320 319 317 314 311 303 293 283 275 271 270 270 265 250 236 232 236 235 229 224 223 223 221 215 212 210 204 199 201 208
97 94 90 88 85 83 82 79 75 69 64 61 58 56 53 51 50 48 47 46 44 42 39 37 36 34 33 30 25 22 19 16 16 16 15 14 12 10 8 5 1 355 351 346 341 340 340 339 339 338 335 332 329 327 324 322 320 318 316 313 309 302 289 275 266 261 261 263 260 247 235 236 240 233 225 224 222 220 217 213 210 205 201 202 204
100 96 92 89 87 86 85 82 78 74 70 67 64 60 57 55 52 49 47 45 43 41 39 37 35 34 32 30 25 21 18 16 15 15 13 13 14 13 11 7 3 358 355 352 344 339 340 340 338 336 333 332 333 332 328 325 323 322 321 318 314 309 300 285 269 259 256 256 258 256 247 240 239 236 231 227 223 218 213 212 213 210 208 209 211
101 97 93 91 89 89 89 86 82 79 76 72 67 64 60 56 54 50 47 44 41 40 38 36 35 33 31 29 25 21 19 16 15 14 13 12 13 14 12 9 6 2 359 358 351 343 342 341 337 334 333 334 336 335 332 329 327 325 324 321 317 313 307 296 278 261 253 250 250 252 252 249 246 245 242 234 227 221 213 211 214 215 215 217 217
101 98 96 94 94 94 91 89 86 82 78 74 68 63 60 57 55 51 48 45 42 40 38 36 34 32 30 28 25 22 20 18 16 14 12 11 12 12 11 10 7 5 3 3 357 347 345 344 339 335 335 335 337 337 336 333 329 325 322 320 319 316 310 302 288 267 252 249 250 250 251 253 253 252 250 243 237 233 227 223 223 222 220 218 216
102 101 100 99 98 96 93 91 87 83 78 73 67 63 60 58 56 53 50 47 43 41 38 35 33 32 29 27 23 20 20 19 17 15 12 11 11 11 10 8 5 3 3 2 357 350 347 346 342 339 338 339 340 341 341 338 332 326 322 321 321 317 313 311 303 280 254 246 250 252 253 256 260 260 257 250 244 239 234 230 226 221 216 208 205
106 105 105 103 101 98 95 91 88 83 78 72 67 64 61 59 57 54 50 46 42 39 37 35 33 31 29 27 21 17 19 18 16 16 14 12 11 10 8 5 3 1 1 1 356 351 351 349 347 344 343 343 344 345 347 344 338 331 327 325 324 320 318 320 316 298 264 246 248 252 255 260 266 267 263 257 251 241 229 222 215 208 205 203 200
110 109 108 106 103 99 96 92 87 83 79 75 70 66 62 59 57 53 50 46 42 38 35 34 34 32 30 27 22 18 18 17 17 17 17 14 12 10 7 3 2 1 0 359 356 354 356 357 355 352 348 347 349 351 352 350 344 339 335 330 326 325 326 326 319 305 278 254 253 255 258 261 263 264 262 260 256 244 227 219 213 204 201 206 202
114 112 110 107 104 100 96 92 89 85 82 78 72 66 61 59 56 54 51 47 42 38 35 34 34 33 32 29 26 22 19 17 17 18 17 16 14 12 9 5 2 2 0 357 355 358 0 0 360 358 354 353 355 355 356 356 352 348 345 337 328 329 334 333 324 307 278 258 259 261 262 263 262 263 264 263 261 250 232 223 218 208 204 208 201
117 114 111 109 106 102 99 96 92 88 83 77 70 63 59 56 54 52 50 46 41 37 35 34 33 33 33 31 29 26 21 17 17 18 18 18 16 14 12 8 3 1 360 357 356 358 0 0 360 359 358 358 0 0 1 2 0 358 355 347 336 337 342 343 338 326 292 263 259 260 262 265 266 267 268 267 266 260 244 231 223 215 210 208 200
119 116 114 112 110 107 105 102 97 90 83 75 67 61 56 53 50 48 46 42 39 36 33 32 32 33 33 32 30 28 24 18 17 19 19 18 17 17 15 12 7 3 1 1 360 359 359 359 359 360 1 2 4 6 6 7 8 7 3 356 352 358 4 5 5 5 1 345 322 307 295 292 290 285 280 276 272 267 255 240 229 222 217 211 205
124 121 119 117 116 114 112 109 102 94 86 76 67 60 55 50 47 45 43 40 37 34 31 29 29 30 31 32 30 28 27 22 19 20 20 19 19 19 18 16 15 12 9 7 5 3 1 1 1 2 4 6 9 10 11 11 12 11 7 5 12 23 25 24 27 30 34 40 44 41 34 25 11 351 328 307 289 281 273 254 239 231 224 219 216
131 128 127 125 123 122 120 116 109 99 88 77 65 57 50 46 42 39 38 36 34 32 29 27 26 26 27 29 29 27 27 24 21 20 20 19 20 22 22 22 22 21 17 11 8 5 4 4 5 7 10 12 13 14 15 15 15 12 9 11 21 31 33 31 30 30 33 37 39 35 32 30 28 25 19 6 344 319 305 279 256 247 234 226 225
139 138 137 135 132 130 125 118 109 97 84 71 59 50 42 37 35 31 30 31 30 29 27 25 25 24 22 23 25 26 25 24 23 21 20 19 21 24 25 25 26 25 22 17 12 10 8 8 10 12 14 15 16 17 19 18 16 14 12 15 24 33 34 31 28 28 31 33 33 30 27 27 28 28 28 30 30 20 2 328 280 257 239 229 227
148 148 149 147 143 138 129 117 103 85 72 59 50 44 35 30 28 26 26 27 27 26 26 24 23 23 21 20 21 23 24 23 23 22 21 19 20 24 27 27 27 27 25 21 18 17 15 14 15 16 18 17 17 18 19 19 17 16 16 18 24 31 33 30 30 30 29 29 29 29 28 28 31 34 38 45 50 52 54 58 58 82 200 211 208
157 157 158 158 154 147 135 117 91 66 52 43 38 36 32 27 24 22 23 26 27 25 25 24 23 22 21 20 20 21 23 23 21 21 19 18 19 23 25 26 27 27 26 23 21 20 19 18 17 18 19 19 18 17 17 18 19 20 20 21 24 28 30 31 32 32 29 27 29 31 30 32 37 42 46 49 50 51 57 70 77 82 102 122 121
165 167 166 166 163 155 140 116 94 70 47 39 38 38 36 30 25 23 22 24 26 26 25 24 22 21 20 19 19 21 23 23 21 19 18 17 18 22 25 26 26 26 25 23 21 20 19 19 19 20 21 21 21 20 20 20 20 18 19 21 24 27 29 32 35 35 30 28 30 33 35 39 42 43 43 44 45 46 55 70 75 77 89 101 99
177 177 176 176 173 165 152 129 107 85 56 46 46 50 51 42 33 28 25 22 22 23 24 25 24 23 21 19 18 19 22 23 22 20 18 18 19 23 26 27 26 26 24 22 22 22 21 21 21 21 21 21 20 20 19 19 18 17 18 21 24 27 30 34 37 36 32 30 31 33 37 41 42 42 43 44 43 43 52 64 69 73 84 89 82
187 185 185 186 184 177 165 148 127 102 75 58 51 53 55 50 42 35 30 25 21 20 23 27 29 29 28 23 18 15 18 21 22 21 21 23 25 28 29 27 26 26 25 24 24 23 22 21 20 20 19 18 17 17 16 16 16 16 18 20 22 25 28 30 32 33 33 32 32 32 35 39 42 43 45 46 45 45 50 57 62 67 76 78 69
186 185 187 188 187 182 169 158 148 124 88 64 54 51 51 49 45 38 30 24 20 18 20 25 29 31 32 31 27 21 18 19 21 22 24 26 29 32 32 30 28 26 25 25 26 24 22 20 19 18 18 17 17 16 15 15 15 14 16 18 21 23 25 26 29 33 36 37 36 35 37 39 40 42 45 46 47 48 51 54 58 62 67 69 66
177 180 183 185 185 182 172 163 160 144 94 56 45 43 44 46 45 38 30 22 17 16 17 21 26 28 29 30 31 30 27 24 23 23 25 26 28 29 28 29 29 28 26 26 26 25 22 21 19 18 17 18 18 16 16 16 16 15 15 17 20 22 23 23 25 31 36 38 38 39 40 40 41 42 45 47 48 50 52 53 55 58 60 63 64
171 174 178 182 185 183 174 166 164 159 115 54 39 32 33 39 42 38 31 22 16 16 16 18 22 25 26 26 26 27 28 27 25 24 25 25 28 29 28 28 29 29 29 28 26 23 23 22 20 18 18 17 17 17 18 19 18 18 17 17 19 22 23 23 27 32 35 36 37 39 41 43 44 45 47 49 50 51 53 53 54 56 57 60 62
168 170 175 179 181 180 177 173 171 170 156 52 37 30 29 32 34 32 30 25 21 21 19 17 18 21 23 25 25 24 26 27 26 24 24 24 27 30 30 31 32 31 30 29 26 22 21 21 20 18 18 18 17 18 19 21 21 21 21 20 20 22 25 28 32 34 35 36 38 39 40 44 47 48 49 51 52 53 54 54 55 57 57 58 60
171 171 175 180 179 177 178 181 184 185 199 274 338 13 29 33 28 23 20 19 21 24 22 19 17 17 19 23 25 25 26 27 26 25 22 22 25 28 30 32 34 32 31 29 26 21 18 18 18 18 18 19 19 19 20 21 23 24 24 24 24 25 28 31 33 33 33 36 38 39 41 46 49 50 51 52 53 55 56 55 55 57 58 59 60
181 184 190 194 193 188 182 184 191 200 208 236 297 329 353 28 26 18 15 14 13 15 19 18 16 15 15 17 22 23 24 26 28 27 26 24 24 27 29 29 27 25 26 26 25 22 19 16 17 18 19 19 20 20 20 21 23 25 25 26 27 28 29 30 32 32 32 34 35 38 42 46 49 52 53 53 53 54 55 58 59 60 61 63 65
189 195 202 203 207 211 204 195 197 207 220 241 275 297 298 312 11 12 12 11 8 9 12 14 16 18 17 16 17 19 22 26 27 28 30 31 29 28 28 25 20 18 19 20 20 21 20 17 16 18 19 20 20 20 21 22 24 27 28 28 29 30 31 31 32 33 34 34 35 37 41 44 47 51 52 53 54 55 56 59 63 65 68 69 70
190 198 204 205 210 215 214 208 208 218 235 255 273 291 296 278 296 359 6 8 7 9 11 11 14 18 19 17 16 16 19 22 24 25 28 30 31 30 28 23 18 16 16 16 15 15 16 16 16 17 19 20 20 20 22 23 24 27 30 31 31 32 33 35 35 36 36 37 37 38 41 43 45 48 50 51 52 53 54 57 61 65 69 73 74
192 196 203 211 215 213 212 210 211 229 252 263 270 281 283 261 231 323 357 359 360 4 7 8 9 10 11 12 12 11 12 14 17 21 23 23 24 25 23 19 17 15 13 13 12 12 12 13 14 16 18 20 21 22 22 24 25 26 28 31 32 32 34 36 37 38 38 39 39 40 42 43 44 45 47 48 48 48 49 52 58 63 68 72 75
196 201 212 224 229 221 213 207 205 233 261 267 270 277 274 244 214 229 328 341 345 351 357 2 6 6 6 8 10 9 7 7 9 14 17 17 17 18 16 15 14 12 11 13 13 12 12 12 13 15 18 20 22 23 22 23 24 24 25 28 31 32 32 33 35 36 37 38 40 41 42 43 43 43 44 44 43 45 47 51 58 65 71 75 81
201 209 218 229 236 229 216 211 220 243 258 264 276 293 280 243 214 214 283 316 323 333 341 350 359 2 0 2 6 7 5 3 4 6 8 11 13 14 14 14 12 10 11 12 13 13 12 11 12 15 18 20 22 23 22 22 23 23 23 25 28 30 30 30 32 34 36 37 38 40 41 42 42 42 43 43 42 44 49 55 61 68 75 80 86
204 212 218 227 233 224 210 212 229 240 240 243 268 288 277 248 223 218 256 290 302 316 327 336 348 356 355 354 359 4 4 1 359 359 1 5 8 10 11 12 11 10 10 11 13 13 13 12 13 16 20 21 22 22 22 21 20 20 20 22 25 28 29 29 30 34 36 37 38 39 39 40 40 40 41 43 44 46 51 57 62 70 77 83 88
210 214 220 227 223 211 206 214 225 224 218 227 254 276 283 267 242 233 253 280 293 302 312 323 334 344 348 348 351 357 1 1 358 356 357 360 3 7 9 10 9 9 9 10 12 13 14 14 16 17 19 21 21 20 19 18 17 16 16 19 22 26 28 29 30 33 37 38 38 38 39 39 41 41 42 43 43 45 51 55 58 66 76 82 88
215 214 216 219 215 209 209 216 218 214 215 229 247 269 287 279 253 243 254 270 284 293 303 316 323 328 334 340 343 347 354 358 358 356 355 356 359 3 7 9 10 10 10 11 12 13 15 17 20 21 21 21 21 19 17 15 13 13 15 17 20 24 27 28 28 31 34 35 36 37 38 39 41 43 43 43 42 43 47 49 49 53 65 79 90
218 214 211 212 214 212 211 213 216 216 221 231 241 256 275 266 244 243 253 264 276 287 298 309 314 314 317 324 330 335 340 348 354 355 354 354 355 358 3 7 9 10 10 12 13 14 15 17 21 23 24 23 21 20 18 16 14 15 17 20 22 24 26 27 26 28 32 32 32 35 37 38 40 42 42 41 41 41 42 43 42 42 48 61 78
217 214 211 212 215 214 213 213 218 222 225 232 240 251 260 249 237 240 253 264 274 285 296 304 306 304 305 308 315 322 327 334 343 350 351 351 351 353 357 2 5 7 9 11 13 15 16 15 15 17 18 18 18 17 17 17 17 17 20 24 27 27 26 25 24 27 30 31 31 32 35 36 38 40 41 42 44 44 43 42 39 37 38 45 57
218 218 216 213 214 217 219 220 222 224 229 236 243 251 256 252 245 245 253 263 274 282 292 299 299 295 296 299 303 308 315 321 331 342 348 348 348 348 351 356 360 2 5 8 11 15 18 17 16 15 15 15 15 15 16 17 18 19 21 24 28 29 28 26 25 26 28 29 29 29 31 34 36 37 39 43 46 48 49 48 43 40 40 40 45
221 223 219 216 217 222 227 228 228 231 235 240 247 252 257 258 256 254 256 264 271 279 290 299 297 292 293 296 296 300 306 311 317 328 339 344 345 345 347 351 354 355 358 3 7 12 17 20 20 19 18 17 16 16 16 17 18 20 22 23 24 24 24 24 24 26 27 28 27 25 24 27 30 31 32 35 37 40 45 47 44 42 42 43 48
223 225 223 221 223 228 232 232 233 237 241 245 250 254 256 258 260 260 260 263 268 275 286 295 295 292 295 297 297 298 303 305 305 310 324 333 338 338 340 346 350 351 351 354 358 3 10 17 19 20 20 20 19 18 18 19 19 20 22 23 23 22 20 18 18 20 22 23 24 24 21 21 22 22 23 26 27 28 32 36 39 41 41 40 45
227 228 229 230 232 238 241 241 241 244 248 251 255 256 255 256 260 261 261 262 265 270 277 285 288 289 294 299 302 304 305 302 294 294 306 317 322 323 325 331 340 346 351 353 354 355 358 4 11 17 20 19 17 16 17 20 21 22 22 23 23 22 21 19 16 14 12 11 12 14 15 17 18 17 18 20 20 20 22 25 29 33 38 40 45
234 233 234 238 242 247 249 247 247 249 251 255 258 258 256 255 258 261 261 261 263 265 269 274 278 281 288 296 303 305 304 297 287 290 301 309 311 309 310 313 318 327 338 347 352 353 352 351 354 1 9 13 12 9 9 13 19 21 23 25 25 24 23 21 18 15 12 8 5 3 1 3 6 9 11 13 13 14 15 17 19 21 28 35 42
242 239 238 240 245 249 251 252 252 252 253 255 258 260 259 257 257 260 261 261 261 263 266 268 270 272 280 289 295 297 295 292 291 296 306 310 309 304 301 300 302 307 314 322 331 340 344 342 340 342 346 353 357 357 356 358 4 11 17 22 26 27 28 26 22 18 14 9 5 2 358 354 352 353 356 359 1 2 4 7 10 11 14 20 27
Height
841 841 840 839 839 839 839 838 838 838 837 837 836 836 836 835 834 833 831 829 828 827 827 826 825 825 824 823 822 820 818 816 815 813 812 811 810 809 807 806 805 803 801 800 798 796 794 793 791 790 790 788 787 786 785 784 783 782 782 781 780 779 779 778 777 774 772 773 773 772 773 774 774 774 775 775 775 776 777 778 779 781 783 786 788
843 842 841 841 841 841 840 839 839 839 838 837 837 837 837 836 836 834 832 830 829 828 828 827 826 826 825 824 823 821 819 818 816 814 813 811 810 809 808 806 805 803 801 799 798 796 794 792 791 789 788 786 784 784 783 781 780 779 778 777 776 775 775 775 774 772 770 769 770 770 770 771 771 770 772 772 772 773 774 775 776 777 779 781 783
844 844 843 842 842 842 842 841 841 840 839 839 839 838 838 838 837 835 833 832 830 829 829 828 828 827 827 826 825 823 821 819 817 815 814 812 810 809 808 806 805 803 801 799 797 795 794 792 790 788 786 784 782 781 780 779 777 776 774 773 772 771 771 771 770 769 768 766 766 767 767 767 767 767 768 768 769 769 770 771 772 773 774 776 778
845 845 844 844 844 844 843 844 843 842 842 841 841 840 840 839 838 836 835 833 832 831 831 830 830 829 828 827 827 825 823 821 819 817 815 813 811 809 807 806 805 803 801 799 797 795 793 791 789 787 785 783 781 780 778 777 775 773 771 770 769 767 766 767 766 766 764 762 761 762 763 763 763 763 764 765 765 766 766 767 768 769 770 772 774
846 846 846 846 846 846 846 846 845 845 844 844 843 843 842 841 840 838 837 835 834 833 832 832 831 830 830 829 828 827 825 823 820 818 816 814 811 809 807 805 804 803 801 799 797 795 793 791 789 787 785 783 780 779 777 775 773 771 769 767 766 764 762 762 762 761 761 759 757 758 758 759 759 760 760 761 762 762 762 763 765 766 767 768 770
848 847 848 847 847 848 848 848 847 847 847 847 846 845 844 843 842 840 839 838 836 835 834 833 833 832 831 830 829 828 826 824 821 819 817 814 812 810 807 805 803 802 801 799 797 795 793 791 788 786 784 782 780 778 776 774 772 770 768 765 764 762 760 758 757 757 756 755 754 754 754 754 755 755 756 757 758 758 758 759 761 763 764 765 766
849 849 849 849 849 850 850 849 849 849 849 849 848 847 846 845 844 843 841 840 838 837 836 835 834 833 832 831 830 829 827 825 822 820 817 815 813 810 807 805 803 802 800 799 797 795 792 790 788 786 784 782 780 777 775 773 771 769 767 765 762 760 758 755 754 753 752 751 750 749 749 750 750 751 751 752 753 754 754 755 757 759 760 761 762
850 850 850 850 851 851 851 851 850 851 851 851 850 849 848 847 846 845 843 842 840 839 838 837 836 835 833 832 831 829 827 825 823 820 818 816 813 811 808 805 803 802 800 798 797 795 792 790 787 785 783 781 779 777 775 772 770 767 764 763 761 759 756 753 751 749 747 746 745 745 745 745 745 746 747 748 749 749 749 751 752 753 755 756 757
852 852 851 852 852 852 852 852 852 852 852 852 851 850 849 849 848 846 845 843 842 841 840 839 837 836 834 833 832 830 828 827 825 822 820 817 814 811 809 806 804 802 800 798 796 794 791 789 786 784 782 780 778 776 773 771 768 765 762 760 758 756 754 751 748 746 743 741 740 740 740 739 740 741 742 743 743 744 745 747 748 748 750 752 752
853 853 853 854 854 853 853 853 853 853 853 853 852 852 851 850 849 848 846 845 844 843 841 840 838 837 835 834 833 831 830 828 827 824 821 818 815 812 809 807 805 803 800 797 795 792 790 788 785 783 781 778 776 774 771 768 766 763 760 758 756 753 751 748 745 743 740 736 735 735 735 734 735 736 737 737 738 740 742 743 744 746 748 749 750
854 854 855 855 855 854 854 854 854 855 855 855 854 854 853 852 851 849 848 847 846 844 843 841 839 838 837 835 834 832 831 830 827 825 822 819 815 812 809 807 805 803 800 798 794 792 789 786 783 781 778 776 774 771 768 765 762 758 755 752 751 749 746 743 740 738 736 733 730 729 729 729 730 731 732 733 734 736 737 738 740 741 743 744 745
856 856 856 856 855 855 855 856 856 856 856 857 856 856 855 853 852 851 849 848 847 845 844 842 841 839 838 836 835 833 832 830 828 825 822 819 816 813 810 807 805 803 800 798 795 792 789 785 782 779 777 775 772 769 765 761 757 753 748 745 743 741 739 737 734 732 731 730 727 725 724 724 725 726 727 728 729 730 732 734 735 736 736 737 738
857 857 857 857 857 857 858 858 858 858 859 859 858 858 857 855 854 852 851 850 848 846 845 844 842 841 839 838 837 835 833 831 828 825 822 819 816 813 810 807 805 803 800 797 795 792 789 785 781 778 775 773 770 766 763 758 752 747 742 738 734 731 730 729 727 725 724 724 723 721 720 721 720 721 722 724 724 725 727 729 729 731 731 730 730
858 858 858 858 859 860 860 860 860 860 861 861 860 860 858 857 856 854 853 851 850 848 847 846 844 843 841 840 838 836 834 832 829 826 823 820 816 813 811 808 805 802 800 797 794 791 789 785 781 778 775 771 768 764 760 755 749 743 737 733 728 724 721 719 718 717 716 717 716 716 716 717 717 717 718 720 720 719 721 722 723 724 724 724 726
859 860 860 861 862 862 862 862 862 863 863 863 862 861 860 859 857 856 855 853 852 851 849 848 846 845 843 841 839 837 835 832 830 827 823 820 817 814 811 807 804 802 799 796 794 791 789 785 782 778 774 770 767 764 759 753 747 741 735 729 724 719 715 712 709 708 708 709 709 710 711 713 713 714 715 716 716 715 715 717 717 717 719 721 725
861 861 862 863 864 864 864 864 864 865 865 864 864 863 861 861 859 859 857 856 854 853 851 849 848 846 844 842 840 838 836 834 831 828 825 821 817 814 810 807 804 801 798 795 793 791 789 786 782 779 774 770 765 762 757 752 745 739 733 727 721 715 710 706 703 701 701 702 704 705 706 708 709 711 712 712 711 711 713 714 715 717 719 720 722
863 864 864 865 866 865 866 866 866 866 867 866 865 865 864 863 862 860 859 857 855 854 852 851 849 847 846 843 841 840 837 835 833 829 826 822 818 814 811 807 804 802 798 796 794 791 789 786 783 779 774 769 764 759 755 750 744 737 731 725 718 712 706 702 699 696 695 697 700 701 703 704 705 706 707 707 707 707 709 710 711 714 716 717 718
865 866 866 867 867 867 867 867 868 868 868 868 867 867 866 864 863 862 861 859 857 856 854 853 851 849 847 845 843 841 838 835 833 830 826 823 819 815 812 808 805 802 799 796 794 792 788 785 782 779 774 769 764 758 753 749 743 737 731 724 718 711 705 700 696 694 693 695 697 698 699 700 701 701 702 702 702 703 704 704 706 708 710 710 712
866 867 868 868 868 868 869 869 870 870 870 870 869 868 867 866 865 864 862 861 859 858 856 854 852 850 848 846 844 841 838 836 833 830 827 824 821 817 814 810 807 803 800 797 794 791 788 784 781 778 774 769 764 758 753 748 742 736 731 725 719 712 705 700 697 694 693 693 694 695 695 696 697 697 697 697 698 699 700 701 702 702 703 705 708
867 868 869 869 869 870 870 871 871 871 871 871 870 869 868 867 866 865 864 862 861 859 857 855 853 852 850 848 845 842 840 837 835 832 829 826 823 819 815 812 809 805 802 799 795 792 788 784 781 777 773 768 763 758 753 748 742 737 731 726 720 713 706 701 697 694 693 692 692 692 693 693 693 693 694 694 694 694 695 696 697 696 697 700 702
868 869 870 870 870 871 872 872 873 873 872 872 871 870 869 868 867 866 865 863 862 860 858 856 855 853 851 849 847 844 842 839 836 833 830 828 824 821 817 814 811 808 805 802 798 794 790 785 781 777 773 768 763 758 753 748 743 737 732 727 722 715 709 703 699 696 693 692 691 691 691 691 691 691 691 691 690 690 691 692 692 692 692 693 695
869 870 871 871 872 872 873 873 873 874 873 873 872 871 870 869 868 867 866 864 863 861 859 857 856 854 852 850 847 845 843 841 838 835 832 829 826 823 820 817 813 810 806 803 800 796 792 788 784 779 774 769 764 759 753 748 743 738 733 728 721 715 710 706 702 699 696 694 692 691 691 690 690 689 689 688 688 687 687 688 688 688 688 688 689
870 871 872 872 873 873 874 874 874 874 874 873 872 872 871 870 869 868 866 865 864 862 860 858 856 854 852 850 848 846 844 842 839 837 834 831 828 825 822 818 815 811 808 805 802 798 795 791 786 781 775 770 764 760 755 749 744 740 735 729 722 716 711 708 705 702 700 697 694 693 693 692 691 690 689 688 686 685 684 684 684 685 686 686 686
871 872 872 873 874 874 874 875 875 874 874 873 873 872 871 871 870 868 867 866 865 863 861 859 857 854 852 850 848 846 844 842 840 838 835 832 829 826 823 820 816 813 810 807 804 801 797 793 788 783 777 772 767 762 757 752 747 743 738 731 724 718 713 711 709 706 703 700 698 697 697 695 694 692 691 690 688 686 684 683 683 682 683 685 685
871 872 873 874 874 874 875 875 875 875 874 874 873 873 872 871 870 869 868 867 865 864 862 860 858 856 854 852 850 847 845 843 841 839 836 834 830 827 824 821 818 814 811 809 806 803 799 795 790 785 779 774 769 764 759 755 751 746 741 734 727 721 718 716 714 710 708 706 704 702 701 700 698 696 694 692 690 688 686 684 683 683 683 684 685
872 873 873 874 874 874 875 875 875 874 874 874 873 873 872 871 871 870 869 867 866 864 863 861 859 857 855 853 851 849 846 844 841 839 837 834 831 828 825 822 819 816 813 810 807 804 800 796 792 787 782 777 773 768 763 758 753 748 743 737 731 727 724 722 719 716 714 713 710 708 706 704 702 699 697 694 692 690 689 687 686 686 686 686 686
872 873 873 874 874 874 875 875 875 874 874 874 873 873 872 871 871 870 869 867 866 865 863 862 860 858 856 854 852 850 847 845 842 840 837 835 832 830 826 823 820 817 814 811 808 805 802 798 794 789 784 780 775 770 765 760 755 751 747 742 737 734 731 728 725 723 721 719 717 714 711 708 704 702 700 698 696 694 693 691 690 690 690 689 690
871 872 873 873 874 874 874 875 874 874 874 874 873 873 872 872 871 870 869 867 866 865 864 862 861 859 857 855 853 851 848 846 844 842 839 837 834 831 828 825 822 819 816 813 810 807 803 799 794 790 785 780 776 772 768 764 761 757 753 747 743 740 736 733 729 727 726 725 721 718 715 711 708 707 705 702 701 700 698 695 694 694 693 693 696
871 872 873 873 874 874 874 874 874 874 874 873 873 873 872 872 871 870 869 867 866 865 864 863 861 860 858 856 854 852 850 848 846 845 842 840 837 834 831 828 825 822 820 816 813 808 804 800 796 792 789 785 781 777 773 769 765 761 757 753 749 745 741 737 734 733 732 730 726 723 721 718 715 713 711 708 707 706 703 700 700 699 698 699 703
871 872 872 873 873 873 874 874 874 874 874 873 873 872 872 871 871 870 869 868 867 866 865 863 862 860 859 857 856 854 852 851 849 847 844 841 839 836 834 831 828 825 822 818 814 810 807 803 800 797 794 791 787 783 779 775 771 766 762 759 755 751 747 744 742 741 739 736 733 731 727 724 722 720 717 716 714 712 710 708 707 706 706 707 710
870 871 872 872 873 873 874 874 874 874 873 873 873 872 872 871 870 869 869 868 867 866 865 864 862 861 859 858 857 856 854 852 850 848 845 842 840 838 835 833 830 827 824 820 816 813 810 808 805 802 799 796 793 790 786 782 778 774 770 765 760 757 754 751 749 746 744 741 740 737 734 731 729 727 725 723 721 719 718 716 715 714 714 715 716
870 870 871 872 872 873 873 873 873 874 873 873 873 872 871 871 870 869 869 868 867 866 865 864 863 861 860 859 857 856 854 853 851 849 846 844 841 839 837 834 832 829 826 822 819 816 814 812 809 807 804 801 798 795 791 788 784 780 776 772 767 764 761 758 755 752 749 747 745 742 740 739 737 735 733 731 729 727 725 724 724 724 724 724 724
870 870 871 871 872 873 873 873 873 873 873 873 872 872 871 871 870 869 869 868 867 867 865 864 863 862 861 860 858 857 855 853 851 849 847 845 843 840 838 836 833 831 827 824 821 820 817 815 813 811 808 805 802 799 796 793 790 786 782 778 775 771 767 764 760 756 754 752 750 748 746 745 744 742 740 738 737 735 734 734 734 733 732 732 733
869 870 870 871 871 872 872 873 873 873 872 872 872 871 871 870 869 869 869 868 867 867 865 864 863 862 861 860 859 857 856 854 852 850 848 846 844 842 840 837 835 832 829 827 825 823 820 818 816 814 811 809 806 803 800 797 794 790 787 784 780 776 773 768 764 761 759 757 755 753 752 751 749 748 746 745 744 743 742 742 742 741 741 741 741
869 869 870 870 871 871 872 872 872 872 872 871 871 871 871 870 869 869 868 867 867 866 865 865 864 862 862 860 859 858 857 855 853 851 849 847 845 843 840 837 835 833 831 829 828 826 824 821 819 817 814 812 809 807 804 801 797 794 791 788 785 781 778 774 770 768 765 763 761 759 757 756 755 754 753 752 751 750 750 750 750 749 749 749 749
868 869 869 870 870 871 871 872 872 871 871 871 870 870 870 870 869 869 868 867 867 866 865 865 864 863 862 861 859 859 857 856 854 852 850 848 846 844 841 839 837 835 834 832 830 829 827 825 822 820 817 815 812 810 807 804 802 799 796 793 790 786 783 780 777 774 771 769 767 765 763 762 761 759 758 757 757 756 756 756 756 756 756 756 756
868 868 869 869 869 870 870 871 871 871 871 870 870 870 869 869 869 868 868 867 867 866 866 865 864 863 862 861 860 859 857 856 855 853 851 849 847 845 843 841 840 838 836 834 833 831 829 827 825 822 820 818 815 813 810 808 805 802 799 797 794 791 788 786 783 780 777 775 772 770 768 767 766 765 764 763 762 762 762 762 762 762 762 762 762
867 867 868 868 869 869 869 870 870 870 870 869 869 869 868 868 868 868 868 867 866 866 865 864 864 863 862 861 860 859 858 857 855 854 852 850 848 846 845 843 842 840 838 836 835 833 831 829 827 825 823 820 818 816 813 810 808 805 803 800 798 795 793 790 787 785 783 780 778 776 774 773 772 771 769 768 768 767 767 766 766 766 766 767 767
866 867 867 868 868 868 868 869 869 869 869 869 868 868 867 867 867 867 867 867 866 866 865 864 864 863 862 861 860 859 858 856 855 854 852 851 849 848 847 845 843 842 840 838 836 834 833 831 829 827 825 823 821 818 816 814 811 808 806 803 801 798 796 794 791 789 787 785 784 782 780 778 777 776 775 774 773 773 772 771 771 771 770 771 771
865 866 866 867 867 867 868 868 868 868 868 868 867 867 866 866 866 867 867 866 866 865 865 864 863 863 862 861 860 858 857 856 855 854 853 852 850 849 848 846 845 843 841 840 838 836 834 832 830 829 827 825 823 821 818 816 814 812 809 806 804 802 800 797 796 794 792 790 788 787 785 784 783 781 780 779 778 778 777 777 776 776 775 775 776
865 865 865 866 866 866 867 867 867 867 867 867 867 866 866 866 866 866 866 865 865 865 864 864 863 862 862 861 860 859 858 856 855 855 854 852 851 850 848 847 846 844 843 841 839 837 835 834 832 830 828 826 825 823 821 819 817 814 812 810 807 805 803 801 799 797 796 794 793 791 790 788 787 786 785 784 783 783 783 782 781 781 781 781 780
863 864 864 864 865 865 866 866 866 866 866 866 866 866 865 865 865 865 865 865 865 864 863 863 862 862 861 860 859 858 858 857 856 855 854 853 852 851 849 848 847 845 844 842 840 839 837 835 833 832 830 828 826 825 823 821 819 817 815 813 811 808 806 804 802 801 799 798 797 795 794 793 791 790 789 788 788 787 787 786 786 786 785 785 785
862 863 863 863 864 864 865 865 865 865 865 866 866 865 865 864 864 864 864 864 864 863 863 862 862 861 861 860 859 858 858 857 856 855 854 853 852 851 850 849 847 846 845 843 842 840 838 837 835 833 831 830 828 826 824 823 821 819 817 815 813 812 810 808 806 804 803 801 800 799 798 797 796 794 793 792 791 791 790 790 790 790 790 790 790
861 862 862 862 863 863 863 864 864 864 864 865 865 864 864 864 864 864 864 863 863 862 862 861 861 860 860 859 859 858 857 856 856 855 854 853 852 851 850 849 848 847 845 844 843 841 840 838 836 835 833 832 830 828 827 825 823 821 819 817 816 814 813 811 810 808 807 805 804 803 802 800 799 798 797 796 795 794 794 793 793 793 793 793 793
860 861 861 861 862 862 862 863 863 863 864 864 864 864 864 863 863 863 863 862 862 861 861 860 860 859 859 858 858 857 857 856 855 854 854 853 852 851 850 849 848 847 846 844 843 842 840 839 837 836 834 833 831 830 828 826 824 822 821 819 818 817 815 814 813 812 810 809 808 806 805 804 803 801 801 800 799 798 797 797 797 796 796 796 796
859 859 860 860 861 861 862 862 862 862 863 863 863 863 863 862 862 862 862 861 861 861 860 860 859 858 858 857 857 857 856 855 855 854 853 852 852 851 850 849 848 847 846 845 844 842 841 840 838 837 835 834 832 831 829 828 826 824 823 821 820 819 818 817 815 814 813 812 811 809 808 807 806 805 804 803 802 802 801 800 799 799 799 799 799
858 858 858 859 859 860 860 861 861 861 861 861 861 862 861 861 861 861 860 860 860 860 859 859 858 858 857 857 856 856 855 854 854 853 852 852 851 850 849 849 848 847 846 845 844 843 842 840 839 838 836 835 834 832 830 829 827 826 824 823 822 821 819 818 817 816 815 814 813 812 811 809 808 808 807 806 805 804 804 803 802 802 801 801 801
856 857 857 858 858 858 859 859 859 860 860 860 860 860 860 860 860 860 859 859 859 858 858 858 857 857 856 856 855 855 854 853 853 852 852 851 850 850 849 848 847 846 845 845 844 843 842 841 840 838 837 836 835 833 832 830 828 827 826 824 823 822 821 820 819 818 817 816 815 814 813 812 811 810 809 808 807 806 806 805 805 804 803 803 803
855 855 856 856 856 857 857 857 858 858 858 858 858 858 858 858 858 858 858 858 857 857 857 857 856 856 856 855 854 854 853 852 852 851 851 850 849 848 848 847 847 846 845 844 843 842 841 841 840 839 838 837 835 834 833 831 830 828 827 825 824 823 822 821 820 819 818 817 816 815 814 813 813 812 811 810 809 808 808 807 807 806 806 805 805
853 853 854 854 855 855 855 856 856 856 856 856 856 856 857 857 857 856 856 856 856 856 855 855 855 855 854 854 853 853 852 851 851 850 850 849 848 847 847 846 845 845 844 843 843 842 841 840 839 839 838 837 836 835 834 832 831 830 828 827 825 824 823 822 821 820 819 818 817 817 816 815 814 813 812 812 811 810 809 808 808 808 807 807 806
851 851 852 852 853 853 853 854 854 854 854 854 854 854 854 854 854 854 854 854 854 854 853 853 853 853 853 853 852 852 851 850 850 849 848 848 847 846 846 845 844 844 843 843 842 841 840 839 839 838 837 837 836 835 834 833 832 830 829 828 827 825 824 823 822 821 820 819 818 817 817 816 815 814 813 813 812 811 811 810 809 809 808 808 808